Погода в Севастополе

Россия / Калужская область     53°27′24″N   35°11′04″E
темп.,
°C
ветер,
м/с
пор.,
м/с
влажн.,
%
обл.,
%
осадки,
мм/ч
давл.,
гПа
погр.,
м
13 июня, вс
вс1300:00+12ююз11950 0.0 100810
03:00+12юз11960 0.0 100711
06:00+13ююз12972 0.0 100789
09:00+19ю237477 0.1 1007508
12:00+22ю456063 0.8 10071435
15:00+21ююз468298 2.8 10071132
18:00+20ю368898 1.9 1007547
21:00+16ю239677 3.6 100848
14 июня, пн
пн1400:00+15ю2296100 0.3 100943
03:00+14ююв229799 0.3 101020
06:00+15ююв13969 0.0 101287
09:00+20ю127327 0.0 1013493
12:00+25юз125217 0.0 10141488
15:00+25ююз115396 0.2 10141595
18:00+25юв116126 0.3 1014926
21:00+17зюз11915 1.1 101511
15 июня, вт
вт1500:00+16з11944 0.1 101511
03:00+15сз11955 0.1 101411
06:00+16сз119493 0.0 101432
09:00+22ссз117488 0.0 1014432
12:00+25сз115819 0.2 10131450
15:00+27зсз324855 0.4 10112050
18:00+23ссв017392 0.3 1010314
21:00+19юв018726 0.8 101111
16 июня, ср
ср1600:00+16с249744 0.5 101187
03:00+15ссз259867 1.3 1011118
06:00+16ссз389787 0.0 1012244
09:00+21с35685 0.0 1012594
12:00+24с455031 0.0 10131628
15:00+24с455189 0.0 10141813
18:00+22ссв57631 0.0 1015824
21:00+17ссв310810 0.0 1017340
17 июня, чт
чт1700:00+14ссв312830 0.0 1018290
03:00+13св310890 0.0 1020212
06:00+13св311760 0.0 1022317
09:00+19св47520 0.0 1023682
12:00+22всв46410 0.0 10241524
15:00+23всв56410 0.0 10241533
18:00+21всв46540 0.0 10241213
21:00+15всв24860 0.0 102559